{"data":{"norad_id":52300,"epoch":"2026-09-20T02:04:27.839712Z","epoch_age_seconds":95382,"freshness":"FRESH","line1":"1 52300U 22041AR  26263.08643333 -.00000079  00000+0  87924-5 0  9999","line2":"2 52300  53.1593 293.3092 0001095  80.4390 279.6736 15.34388707245259","mean_motion":15.34388707,"eccentricity":0.0001095,"inclination_deg":53.1593,"raan_deg":293.3092,"arg_perigee_deg":80.439,"mean_anomaly_deg":279.6736,"bstar":8.7924e-6,"rev_number":24525,"period_min":93.848448794664,"perigee_km":461.98772990715,"apogee_km":463.48588127057,"semimajor_km":6840.8738055889,"source":"CELESTRAK","updated_at":"2026-09-20T09:00:40.018106Z"}}